[[{"header":{"parameterUnit":"m.s-1","parameterCategory":1,"la1":30.2991,"la2":30.254,"lo1":-89.0895,"lo2":-89.0444,"dy":0.0017,"dx":0.0017,"nx":28,"ny":28,"refTime":"2024-02-25T09:00:00:Z","depth":0,"parameterNumber":2,"parameterNumberName":"U-component_of_WINDS"},"data":[0,0,0,0,0,0,0,0,0,0,0,0,0,0,0,0,0,0,0,0,0,0,0,0,0,0,0,0,0,0,0,0,0,0,0,0,0,0,0,0,0,0,0,0,0,0,0,0,0,0,0,0,0,0,0,0,0,0,-0.8505,-0.8506,0,-0.8573,-0.8574,-0.8575,-0.8567,-0.8566,-0.8565,-0.8564,-0.8634,-0.8637,-0.864,0,0,0,0,0,0,0,0,0,0,0,0,0,-0.8368,-0.837,-0.8505,-0.8506,-0.8507,-0.8573,-0.8574,-0.8575,-0.8567,-0.8566,-0.8565,-0.8564,-0.8633,-0.8637,-0.864,0,0,0,0,0,0,0,0,0,0,0,0,0,-0.8431,-0.8371,-0.8505,-0.8511,-0.8512,-0.8573,-0.8574,-0.8575,-0.8568,-0.8566,-0.8565,-0.8563,-0.8632,-0.8636,-0.864,-0.8699,0,0,-0.8654,-0.8655,0,0,0,0,0,0,0,0,-0.8427,-0.8436,-0.8509,-0.8511,-0.8512,-0.856,-0.8551,-0.8617,-0.8568,-0.8547,-0.8564,-0.8562,-0.8611,-0.8617,-0.8633,-0.8703,-0.8706,-0.8654,-0.8657,-0.8658,-0.866,0,0,0,0,0,0,0,-0.8423,-0.8433,-0.8532,-0.851,-0.8512,-0.851,-0.8517,-0.8564,-0.8587,-0.8548,-0.8548,-0.8556,-0.8611,-0.8629,-0.8635,-0.8707,-0.8654,-0.8658,-0.866,-0.8662,-0.8827,-0.8829,0,0,0,0,0,0,-0.8417,-0.8429,-0.853,-0.8534,-0.8465,-0.8514,-0.8522,-0.8546,-0.8586,-0.8591,-0.8558,-0.8556,-0.8622,-0.863,-0.8637,-0.8709,-0.8658,-0.8662,-0.8665,-0.8825,-0.8828,-0.883,0,0,0,0,0,0,-0.8414,-0.8426,-0.8527,-0.8481,-0.8494,-0.8518,-0.8545,-0.8548,-0.8566,-0.8593,-0.8597,-0.8571,-0.8621,-0.8631,-0.8684,-0.8711,-0.8664,-0.8668,-0.8823,-0.8826,-0.8829,-0.8852,0,0,0,0,0,0,-0.841,-0.8425,-0.8448,-0.8482,-0.8497,-0.8573,-0.8547,-0.8551,-0.8574,-0.8572,-0.8607,-0.8612,-0.8621,-0.8677,-0.8688,-0.8716,-0.8672,-0.8821,-0.8825,-0.8828,-0.8849,-0.8855,-0.8861,0,0,0,0,0,-0.8405,-0.8452,-0.8449,-0.8461,-0.8526,-0.8575,-0.8583,-0.8592,-0.8576,-0.8599,-0.8616,-0.8611,-0.8706,-0.8683,-0.8695,-0.8725,-0.8819,-0.8824,-0.8828,-0.8847,-0.8854,-0.8861,0,0,0,0,0,0,-0.8421,-0.8457,-0.8454,-0.8513,-0.8541,-0.8573,-0.8603,-0.86,-0.8633,-0.863,-0.864,-0.8649,-0.8702,-0.8718,-0.8692,-0.8783,-0.876,-0.8767,-0.8771,-0.8778,-0.8784,-0.8779,-0.8675,0,0,0,0,0,-0.8431,-0.8468,-0.8497,-0.8546,-0.856,-0.8579,-0.8601,-0.8605,-0.8635,-0.8646,-0.8667,-0.8696,-0.8732,-0.8756,-0.8791,-0.8851,-0.8859,-0.8877,-0.8883,-0.8888,-0.8894,-0.8926,-0.8935,-0.8843,-0.8843,-0.8843,0,0,-0.8453,-0.8477,-0.85,-0.855,-0.8572,-0.861,-0.8589,-0.863,-0.8658,-0.8653,-0.8704,-0.872,-0.8752,-0.8809,-0.8835,-0.8824,-0.892,-0.8893,-0.8896,-0.89,-0.8931,-0.894,-0.8948,-0.8846,-0.8845,-0.8845,0,0,-0.8512,-0.8534,-0.8577,-0.8599,-0.8633,-0.8645,-0.8655,-0.8688,-0.8698,-0.875,-0.8746,-0.8779,-0.8842,-0.8865,-0.8885,-0.8951,-0.8947,-0.8962,-0.8993,-0.9024,-0.9031,-0.9038,-0.9062,-0.907,-0.8967,-0.8967,-0.8967,0,-0.8535,-0.8592,-0.86,-0.8641,-0.8663,-0.8659,-0.8703,-0.8725,-0.8768,-0.8783,-0.877,-0.8848,-0.8869,-0.8931,-0.8947,-0.8963,-0.8975,-0.8958,-0.903,-0.9036,-0.9042,-0.9065,-0.9074,-0.8969,-0.8969,-0.8969,-0.8968,0,-0.8618,-0.8657,-0.8688,-0.873,-0.8755,-0.8798,-0.8812,-0.8837,-0.8839,-0.8852,-0.8904,-0.8929,-0.8969,-0.8984,-0.8986,-0.9046,-0.9038,-0.9027,-0.9005,-0.9053,-0.9074,-0.9083,-0.8971,-0.8971,-0.897,-0.897,0,0,-0.8691,-0.8735,-0.8747,-0.8765,-0.8801,-0.8831,-0.8873,-0.8912,-0.8933,-0.8962,-0.8997,-0.9049,-0.9039,-0.9062,-0.9067,-0.9094,-0.9145,-0.908,-0.9081,-0.9092,-0.9212,-0.922,-0.923,-0.9142,-0.9144,-0.9145,-0.9209,0,-0.8754,-0.8828,-0.8836,-0.8902,-0.8938,-0.8934,-0.897,-0.8996,-0.9009,-0.9041,-0.9055,-0.9092,-0.9076,-0.909,-0.9117,-0.9133,-0.9169,-0.9128,-0.9175,-0.9176,-0.9168,-0.9241,-0.9251,-0.931,-0.9218,-0.9219,-0.922,0,-0.8838,-0.8869,-0.8939,-0.8969,-0.8984,-0.9017,-0.9052,-0.9083,-0.9112,-0.9119,-0.9144,-0.9145,-0.9187,-0.9162,-0.922,-0.9192,-0.9211,-0.9222,-0.9225,-0.923,-0.9202,-0.9249,-0.9329,-0.9338,-0.9233,-0.9232,-0.9231,0,-0.8884,-0.8944,-0.8993,-0.9009,-0.9045,-0.9068,-0.9084,-0.9111,-0.9133,-0.9164,-0.9179,-0.9214,-0.9234,-0.9261,-0.9271,-0.9252,-0.9329,-0.9305,-0.9336,-0.9336,-0.9354,-0.9353,-0.9439,-0.9365,-0.9365,-0.9364,-0.9364,0,-0.8954,-0.8997,-0.9014,-0.9045,-0.9092,-0.91,-0.9147,-0.9162,-0.9186,-0.9219,-0.9217,-0.9248,-0.9259,-0.9292,-0.93,-0.9347,-0.9356,-0.9363,-0.9365,-0.9363,-0.9363,-0.9377,-0.9373,-0.9367,-0.9366,-0.9366,-0.9365,0,-0.9015,-0.9028,-0.9081,-0.9111,-0.9119,-0.9153,-0.9178,-0.9207,-0.9219,-0.9261,-0.9271,-0.9289,-0.9327,-0.934,-0.9386,-0.9391,-0.9446,-0.9444,-0.9437,-0.9437,-0.9468,-0.9466,-0.9567,-0.9581,-0.9497,-0.9498,-0.9499,0,-0.9059,-0.9092,-0.9125,-0.9147,-0.9164,-0.9199,-0.9221,-0.923,-0.9254,-0.9288,-0.9313,-0.9351,-0.9381,-0.9442,-0.946,-0.9495,-0.9494,-0.9527,-0.9499,-0.9497,-0.9495,-0.9493,-0.9496,-0.9532,-0.9533,-0.9534,-0.9535,0,-0.9137,-0.9141,-0.9174,-0.9209,-0.9236,-0.9264,-0.9291,-0.9309,-0.9321,-0.9348,-0.9386,-0.941,-0.9457,-0.9494,-0.9529,-0.9546,-0.9542,-0.9543,-0.9552,-0.9552,-0.9546,-0.955,-0.9452,-0.9541,-0.954,-0.954,-0.9539,-0.9539,-0.9191,-0.922,-0.9247,-0.9283,-0.9304,-0.9329,-0.9358,-0.9373,-0.9405,-0.9444,-0.9447,-0.9489,-0.9515,-0.9563,-0.958,-0.9613,-0.9603,-0.9617,-0.962,-0.9624,-0.9626,-0.954,-0.9619,-0.9619,-0.9619,-0.9619,-0.9619,0,-0.9269,-0.9286,-0.9319,-0.9356,-0.9385,-0.9378,-0.9407,-0.9432,-0.9469,-0.9494,-0.9524,-0.9568,-0.9603,-0.9623,-0.9659,-0.9681,-0.968,-0.969,-0.9689,-0.9693,-0.9632,-0.9621,-0.969,-0.969,-0.969,-0.969,-0.969,-0.969,-0.9313,-0.9361,-0.9368,-0.9427,-0.9443,-0.9484,-0.9502,-0.9524,-0.9544,-0.9594,-0.9623,-0.9636,-0.9658,-0.9695,-0.9728,-0.9732,-0.9746,-0.9757,-0.9761,-0.9704,-0.9697,-0.969,-0.9679,-0.9759,-0.976,-0.9818,-0.9819,-0.9819]},{"header":{"parameterUnit":"m.s-1","parameterCategory":1,"la1":30.2991,"la2":30.254,"lo1":-89.0895,"lo2":-89.0444,"dy":0.0017,"dx":0.0017,"nx":28,"ny":28,"refTime":"2024-02-25T09:00:00:Z","depth":0,"parameterNumber":3,"parameterNumberName":"V-component_of_WINDS"},"data":[0,0,0,0,0,0,0,0,0,0,0,0,0,0,0,0,0,0,0,0,0,0,0,0,0,0,0,0,0,0,0,0,0,0,0,0,0,0,0,0,0,0,0,0,0,0,0,0,0,0,0,0,0,0,0,0,0,0,-2.6453,-2.6454,0,-2.658,-2.6582,-2.6583,-2.6589,-2.6588,-2.6586,-2.6585,-2.6713,-2.6718,-2.6723,0,0,0,0,0,0,0,0,0,0,0,0,0,-2.6211,-2.6216,-2.6452,-2.6454,-2.6456,-2.658,-2.6582,-2.6584,-2.659,-2.6588,-2.6586,-2.6584,-2.6712,-2.6717,-2.6723,0,0,0,0,0,0,0,0,0,0,0,0,0,-2.6325,-2.6217,-2.6452,-2.6474,-2.6477,-2.658,-2.6582,-2.6584,-2.659,-2.6588,-2.6585,-2.6583,-2.671,-2.6717,-2.6724,-2.6813,0,0,-2.6746,-2.6749,0,0,0,0,0,0,0,0,-2.6319,-2.6334,-2.6469,-2.6472,-2.6476,-2.6567,-2.6544,-2.6661,-2.6591,-2.6547,-2.6585,-2.6582,-2.6666,-2.6677,-2.6706,-2.6819,-2.6825,-2.6747,-2.6751,-2.6754,-2.6756,0,0,0,0,0,0,0,-2.6311,-2.6329,-2.6503,-2.6471,-2.6475,-2.6476,-2.649,-2.6566,-2.6617,-2.6551,-2.6551,-2.6567,-2.6668,-2.6699,-2.6709,-2.6827,-2.6746,-2.6753,-2.6757,-2.676,-2.702,-2.7023,0,0,0,0,0,0,-2.6299,-2.6322,-2.6499,-2.6507,-2.639,-2.6482,-2.6498,-2.654,-2.6617,-2.6626,-2.6568,-2.6566,-2.6687,-2.67,-2.6713,-2.6823,-2.6754,-2.6761,-2.6765,-2.7018,-2.7021,-2.7024,0,0,0,0,0,0,-2.6294,-2.6315,-2.6494,-2.6415,-2.6438,-2.6489,-2.6536,-2.6544,-2.6575,-2.663,-2.6639,-2.6591,-2.6686,-2.6703,-2.6789,-2.6828,-2.6764,-2.6771,-2.7015,-2.7019,-2.7022,-2.7044,0,0,0,0,0,0,-2.6287,-2.6313,-2.6348,-2.6416,-2.6442,-2.6568,-2.6539,-2.6548,-2.6587,-2.6586,-2.6654,-2.6663,-2.6686,-2.6778,-2.6796,-2.6837,-2.6776,-2.7012,-2.7017,-2.7021,-2.704,-2.7048,-2.7055,0,0,0,0,0,-2.6278,-2.6348,-2.635,-2.6371,-2.6487,-2.657,-2.6585,-2.6611,-2.659,-2.6626,-2.6661,-2.666,-2.6821,-2.6787,-2.6807,-2.685,-2.7009,-2.7015,-2.7021,-2.7036,-2.7046,-2.7054,0,0,0,0,0,0,-2.6283,-2.6357,-2.636,-2.6454,-2.6506,-2.6571,-2.6616,-2.6621,-2.6679,-2.6675,-2.6704,-2.6719,-2.6804,-2.6836,-2.6796,-2.6941,-2.6912,-2.6923,-2.6917,-2.6927,-2.6934,-2.6925,-2.6782,0,0,0,0,0,-2.6295,-2.6357,-2.6418,-2.6495,-2.6521,-2.6564,-2.6601,-2.6617,-2.6672,-2.6693,-2.6735,-2.6788,-2.685,-2.689,-2.695,-2.7044,-2.7059,-2.7084,-2.7092,-2.7097,-2.7106,-2.7158,-2.717,-2.7043,-2.7043,-2.7043,0,0,-2.632,-2.6368,-2.6406,-2.6497,-2.6539,-2.6603,-2.6583,-2.665,-2.6697,-2.6703,-2.6787,-2.682,-2.688,-2.697,-2.7012,-2.6999,-2.7144,-2.7105,-2.7109,-2.7114,-2.7165,-2.7177,-2.7188,-2.7047,-2.7046,-2.7046,0,0,-2.6398,-2.6441,-2.651,-2.6553,-2.6617,-2.6645,-2.6662,-2.6727,-2.6749,-2.6834,-2.684,-2.6896,-2.7002,-2.7045,-2.7081,-2.7176,-2.7178,-2.7195,-2.7234,-2.7285,-2.7295,-2.7304,-2.7338,-2.735,-2.7203,-2.7203,-2.7203,0,-2.6421,-2.6517,-2.6544,-2.6613,-2.6653,-2.6662,-2.6732,-2.6772,-2.6852,-2.688,-2.6864,-2.6999,-2.704,-2.714,-2.7164,-2.7192,-2.7212,-2.7187,-2.7291,-2.73,-2.7309,-2.7342,-2.7355,-2.7205,-2.7205,-2.7205,-2.7204,0,-2.6542,-2.6609,-2.6657,-2.6735,-2.6781,-2.6849,-2.6886,-2.6929,-2.6941,-2.6971,-2.7057,-2.7107,-2.7177,-2.7202,-2.7214,-2.7305,-2.7295,-2.7285,-2.7257,-2.7323,-2.7354,-2.7367,-2.7207,-2.7207,-2.7206,-2.7206,0,0,-2.6626,-2.672,-2.6737,-2.6773,-2.6845,-2.6896,-2.6965,-2.7036,-2.7072,-2.7127,-2.7185,-2.7275,-2.7267,-2.7307,-2.7324,-2.7368,-2.7441,-2.7353,-2.7355,-2.7368,-2.7544,-2.7551,-2.7565,-2.7442,-2.7445,-2.7447,-2.7539,0,-2.6712,-2.6836,-2.6863,-2.6969,-2.7031,-2.7042,-2.7102,-2.7152,-2.7182,-2.7238,-2.727,-2.7334,-2.7318,-2.7343,-2.7387,-2.7423,-2.7477,-2.7416,-2.7496,-2.7499,-2.7481,-2.7581,-2.7589,-2.7674,-2.7551,-2.7553,-2.7555,0,-2.6829,-2.6888,-2.7001,-2.7066,-2.7093,-2.7146,-2.7213,-2.7267,-2.7324,-2.7342,-2.7388,-2.74,-2.7472,-2.7441,-2.7539,-2.7498,-2.7532,-2.7554,-2.7558,-2.7567,-2.7531,-2.7593,-2.7701,-2.7714,-2.7574,-2.7573,-2.7572,0,-2.6879,-2.6987,-2.7069,-2.7099,-2.7176,-2.7214,-2.7247,-2.7303,-2.7343,-2.7401,-2.7428,-2.7493,-2.7529,-2.7579,-2.7608,-2.7582,-2.7705,-2.7676,-2.7722,-2.7721,-2.7747,-2.7745,-2.7862,-2.7769,-2.7769,-2.7768,-2.7768,0,-2.6973,-2.7041,-2.7092,-2.7143,-2.722,-2.725,-2.7325,-2.7359,-2.7408,-2.7464,-2.7477,-2.7529,-2.7565,-2.7622,-2.7646,-2.7724,-2.774,-2.7756,-2.7762,-2.7755,-2.7753,-2.7778,-2.7773,-2.7772,-2.7771,-2.777,-2.777,0,-2.7042,-2.7079,-2.7168,-2.7234,-2.7253,-2.7307,-2.7363,-2.7412,-2.7442,-2.7513,-2.7531,-2.7578,-2.7647,-2.7681,-2.7766,-2.7782,-2.787,-2.7872,-2.7851,-2.7853,-2.7897,-2.7893,-2.8035,-2.8055,-2.7948,-2.7949,-2.795,0,-2.7099,-2.7152,-2.7224,-2.7264,-2.7298,-2.7361,-2.7403,-2.7435,-2.7478,-2.7547,-2.7588,-2.7657,-2.7714,-2.7823,-2.7864,-2.7929,-2.7932,-2.7978,-2.7942,-2.7934,-2.7933,-2.793,-2.7935,-2.7984,-2.7985,-2.7986,-2.7986,0,-2.7196,-2.7212,-2.7273,-2.734,-2.739,-2.7444,-2.7497,-2.7528,-2.7568,-2.7616,-2.7687,-2.7731,-2.7818,-2.7887,-2.7955,-2.7989,-2.7994,-2.7997,-2.8012,-2.8006,-2.7991,-2.8,-2.7868,-2.7994,-2.7993,-2.7993,-2.7992,-2.7992,-2.7261,-2.7309,-2.7368,-2.7435,-2.7479,-2.7528,-2.7578,-2.7614,-2.7674,-2.7748,-2.7763,-2.7838,-2.7894,-2.7986,-2.8022,-2.8081,-2.8071,-2.8091,-2.8097,-2.8101,-2.8104,-2.7982,-2.8093,-2.8093,-2.8093,-2.8093,-2.8093,0,-2.736,-2.7398,-2.746,-2.7534,-2.7587,-2.7589,-2.7648,-2.7692,-2.7758,-2.781,-2.7866,-2.7947,-2.8014,-2.8061,-2.8128,-2.8166,-2.8171,-2.8183,-2.818,-2.8188,-2.8108,-2.809,-2.8178,-2.8178,-2.8178,-2.8178,-2.8178,-2.8178,-2.7417,-2.7499,-2.7522,-2.7625,-2.7662,-2.7737,-2.777,-2.7816,-2.7858,-2.7949,-2.8005,-2.8035,-2.8085,-2.8157,-2.8218,-2.823,-2.8254,-2.8267,-2.8278,-2.8203,-2.8194,-2.8185,-2.8168,-2.8272,-2.8272,-2.8354,-2.8354,-2.8355]}]]